This is the latest recevied weather packets stored in our database for station/object K0NV. If no packets are shown the sender has not sent any weather packets the latest 10 day(s).
| Time | Temp. | Humidity | Pressure | Rain* | Wind** | Luminosity | Snow |
|---|---|---|---|---|---|---|---|
| 1777707187 | 9.44° C | 69% | 1018.8 hPa | 0 mm | - | 0 W/m² | - |
| 1777706885 | 8.89° C | 71% | 1018.9 hPa | 0 mm | - | 0 W/m² | - |
| 1777706583 | 8.89° C | 71% | 1018.9 hPa | 0 mm | - | 0 W/m² | - |
| 1777706280 | 8.89° C | 71% | 1019 hPa | 0 mm | - | 0 W/m² | - |
| 1777705977 | 8.89° C | 69% | 1018.8 hPa | 0 mm | - | 0 W/m² | - |
| 1777705675 | 9.44° C | 69% | 1018.8 hPa | 0 mm | - | 0 W/m² | - |
| 1777705373 | 8.89° C | 69% | 1019 hPa | 0 mm | - | 0 W/m² | - |
| 1777705071 | 9.44° C | 70% | 1018.8 hPa | 0 mm | - | 0 W/m² | - |
| 1777704769 | 9.44° C | 69% | 1019 hPa | 0 mm | - | 0 W/m² | - |
| 1777704467 | 9.44° C | 67% | 1018.8 hPa | 0 mm | - | 0 W/m² | - |
| 1777704165 | 10° C | 64% | 1019 hPa | 0 mm | - | 0 W/m² | - |
| 1777703862 | 10° C | 65% | 1019 hPa | 0 mm | - | 0 W/m² | - |
| 1777703560 | 9.44° C | 65% | 1019.1 hPa | 0 mm | - | 0 W/m² | - |
| 1777703256 | 9.44° C | 65% | 1019.1 hPa | 0 mm | - | 0 W/m² | - |
| 1777702954 | 9.44° C | 65% | 1019.1 hPa | 0 mm | - | 0 W/m² | - |
| 1777702652 | 10° C | 66% | 1019.1 hPa | 0 mm | - | 0 W/m² | - |
| 1777702350 | 10° C | 65% | 1019.2 hPa | 0 mm | - | 0 W/m² | - |
| 1777702045 | 10° C | 62% | 1019.5 hPa | 0 mm | - | 0 W/m² | - |
| 1777701741 | 10.56° C | 61% | 1019.3 hPa | 0 mm | - | 0 W/m² | - |
| 1777701439 | 10.56° C | 60% | 1019.5 hPa | 0 mm | - | 0 W/m² | - |
| 1777701136 | 10.56° C | 59% | 1019.3 hPa | 0 mm | - | 0 W/m² | - |
| 1777700836 | 10.56° C | 59% | 1019.2 hPa | 0 mm | - | 0 W/m² | - |
| 1777700533 | 10.56° C | 59% | 1019.2 hPa | 0 mm | - | 0 W/m² | - |
| 1777700230 | 10.56° C | 59% | 1019.3 hPa | 0 mm | - | 0 W/m² | - |
| 1777699927 | 10.56° C | 59% | 1019.5 hPa | 0 mm | - | 0 W/m² | - |
* Rain latest hour (hover to see other rain measurements)
** Current wind speed in m/s (hover to see current wind gust speed)